Radiation Dose at Monitoring Post of Fukushima Daini Nuclear Power Station
Date,Time,MP-1(microSv/h),MP-2(microSv/h),MP-3(microSv/h),MP-4(microSv/h),MP-5(microSv/h),MP-6(microSv/h),MP-7(microSv/h),Wind Direction,Wind Velocity(m/s),Rain
2021/01/27,00:00,0.179,0.160,0.257,0.242,0.239,0.141,0.085,south,6.8,No
2021/01/27,00:10,0.178,0.160,0.256,0.242,0.239,0.141,0.086,south-southwest,7.0,No
2021/01/27,00:20,0.179,0.160,0.256,0.243,0.239,0.141,0.085,south-southwest,8.6,Yes
2021/01/27,00:30,0.179,0.161,0.255,0.243,0.239,0.141,0.086,south-southwest,7.3,Yes
2021/01/27,00:40,0.179,0.161,0.257,0.244,0.239,0.142,0.086,south-southwest,6.7,Yes
2021/01/27,00:50,0.179,0.161,0.257,0.244,0.240,0.144,0.086,south-southwest,7.8,Yes
2021/01/27,01:00,0.180,0.162,0.256,0.243,0.239,0.143,0.088,south-southwest,9.2,Yes
2021/01/27,01:10,0.180,0.161,0.257,0.244,0.240,0.143,0.087,south-southwest,8.4,Yes
2021/01/27,01:20,0.180,0.161,0.258,0.244,0.240,0.143,0.087,south-southwest,8.7,Yes
2021/01/27,01:30,0.180,0.161,0.256,0.243,0.240,0.143,0.088,south-southwest,7.9,Yes
2021/01/27,01:40,0.180,0.162,0.255,0.243,0.240,0.143,0.087,south-southwest,7.7,Yes
2021/01/27,01:50,0.179,0.161,0.257,0.243,0.241,0.143,0.088,south-southwest,7.0,Yes
2021/01/27,02:00,0.179,0.161,0.256,0.243,0.239,0.143,0.087,south-southwest,6.5,Yes
2021/01/27,02:10,0.179,0.161,0.255,0.242,0.240,0.142,0.087,south-southwest,6.4,No
2021/01/27,02:20,0.179,0.160,0.256,0.242,0.240,0.143,0.086,south-southwest,7.6,No
2021/01/27,02:30,0.178,0.160,0.254,0.242,0.237,0.141,0.086,south-southwest,9.3,No
2021/01/27,02:40,0.177,0.160,0.255,0.240,0.239,0.142,0.086,south-southwest,9.2,No
2021/01/27,02:50,0.177,0.158,0.255,0.240,0.238,0.141,0.086,south,9.2,Yes
2021/01/27,03:00,0.177,0.160,0.253,0.241,0.238,0.141,0.085,south,8.7,Yes
2021/01/27,03:10,0.177,0.159,0.254,0.240,0.237,0.141,0.086,south,9.3,Yes
2021/01/27,03:20,0.178,0.158,0.253,0.241,0.238,0.140,0.085,south,9.6,No
2021/01/27,03:30,0.176,0.158,0.253,0.241,0.239,0.139,0.085,south,10.6,No
2021/01/27,03:40,0.176,0.160,0.253,0.240,0.238,0.140,0.085,south,9.5,No
2021/01/27,03:50,0.177,0.158,0.253,0.241,0.236,0.141,0.085,south,9.0,Yes
2021/01/27,04:00,0.177,0.160,0.252,0.241,0.238,0.139,0.085,south,8.4,Yes
2021/01/27,04:10,0.177,0.160,0.253,0.239,0.239,0.140,0.084,south,8.7,Yes
2021/01/27,04:20,0.178,0.158,0.254,0.241,0.237,0.141,0.085,south-southwest,8.4,Yes
2021/01/27,04:30,0.177,0.159,0.254,0.241,0.238,0.142,0.085,south,7.0,Yes
2021/01/27,04:40,0.178,0.159,0.253,0.240,0.238,0.142,0.086,south,7.9,Yes
2021/01/27,04:50,0.179,0.159,0.254,0.240,0.238,0.141,0.086,south,7.9,Yes
2021/01/27,05:00,0.177,0.159,0.254,0.241,0.239,0.141,0.086,south,7.4,Yes
2021/01/27,05:10,0.177,0.160,0.253,0.239,0.238,0.142,0.086,south,7.3,Yes
2021/01/27,05:20,0.178,0.159,0.254,0.242,0.239,0.141,0.087,south,7.4,Yes
2021/01/27,05:30,0.176,0.159,0.253,0.241,0.238,0.141,0.086,south,7.3,Yes
2021/01/27,05:40,0.177,0.160,0.253,0.239,0.238,0.140,0.086,south,7.3,Yes
2021/01/27,05:50,0.178,0.159,0.254,0.240,0.238,0.140,0.086,south,6.0,Yes
2021/01/27,06:00,0.176,0.159,0.252,0.240,0.238,0.141,0.085,south,6.0,Yes
2021/01/27,06:10,0.177,0.160,0.253,0.240,0.237,0.141,0.085,south,5.2,Yes
2021/01/27,06:20,0.176,0.158,0.253,0.240,0.239,0.141,0.085,south,4.2,Yes
2021/01/27,06:30,0.176,0.159,0.251,0.240,0.237,0.140,0.086,south-southeast,4.4,Yes
2021/01/27,06:40,0.176,0.159,0.251,0.240,0.237,0.139,0.086,south,2.4,Yes
2021/01/27,06:50,0.177,0.159,0.253,0.240,0.239,0.141,0.085,south-southwest,1.4,Yes
2021/01/27,07:00,0.177,0.159,0.252,0.240,0.238,0.141,0.085,-,CALM,Yes
2021/01/27,07:10,0.178,0.159,0.253,0.239,0.237,0.142,0.086,northwest,0.6,Yes
2021/01/27,07:20,0.177,0.159,0.253,0.240,0.238,0.142,0.085,north-northeast,0.7,Yes
2021/01/27,07:30,0.178,0.160,0.252,0.239,0.238,0.141,0.086,north,0.8,No
2021/01/27,07:40,0.178,0.159,0.252,0.239,0.239,0.141,0.085,north-northwest,1.3,Yes
2021/01/27,07:50,0.177,0.159,0.254,0.240,0.238,0.140,0.086,north-northwest,1.7,No
2021/01/27,08:00,0.177,0.159,0.251,0.238,0.236,0.141,0.085,west-northwest,1.9,No
2021/01/27,08:10,0.177,0.158,0.254,0.238,0.238,0.140,0.085,west-southwest,2.9,No
2021/01/27,08:20,0.176,0.158,0.252,0.240,0.236,0.140,0.085,west-southwest,1.5,No
2021/01/27,08:30,0.177,0.160,0.253,0.239,0.238,0.139,0.085,west-northwest,0.9,No
2021/01/27,08:40,0.176,0.158,0.253,0.239,0.236,0.140,0.084,northwest,1.8,No
2021/01/27,08:50,0.177,0.157,0.251,0.240,0.237,0.140,0.085,west-northwest,4.1,No
2021/01/27,09:00,0.176,0.158,0.252,0.238,0.237,0.139,0.085,west-northwest,7.0,No
2021/01/27,09:10,0.175,0.158,0.252,0.239,0.236,0.139,0.085,west-northwest,5.9,No
2021/01/27,09:20,0.176,0.158,0.250,0.239,0.237,0.139,0.085,west-northwest,4.4,No
2021/01/27,09:30,0.175,0.157,0.252,0.239,0.235,0.140,0.084,west-northwest,4.5,No
2021/01/27,09:40,0.176,0.158,0.252,0.239,0.239,0.140,0.084,west-northwest,4.8,No
2021/01/27,09:50,0.177,0.158,0.251,0.237,0.235,0.139,0.085,west-northwest,7.4,No
2021/01/27,10:00,0.176,0.158,0.251,0.238,0.236,0.139,0.084,west-northwest,7.0,No
2021/01/27,10:10,0.177,0.158,0.245,0.238,0.237,0.139,0.084,west-northwest,6.6,No
2021/01/27,10:20,0.176,0.157,0.249,0.239,0.235,0.140,0.085,west-northwest,10.4,No
2021/01/27,10:30,0.176,0.158,0.248,0.239,0.237,0.140,0.085,west-northwest,11.7,No
2021/01/27,10:40,0.177,0.158,0.252,0.238,0.236,0.140,0.085,west-northwest,9.3,No
2021/01/27,10:50,0.175,0.158,0.253,0.239,0.237,0.139,0.085,west-northwest,12.5,No
2021/01/27,11:00,0.176,0.158,0.250,0.239,0.238,0.140,0.085,west-northwest,12.3,No
2021/01/27,11:10,0.177,0.158,0.253,0.238,0.237,0.140,0.085,west-northwest,12.6,No
2021/01/27,11:20,0.175,0.158,0.252,0.240,0.238,0.139,0.085,west-northwest,11.2,No
2021/01/27,11:30,0.176,0.159,0.252,0.237,0.235,0.140,0.084,west-northwest,14.2,No
2021/01/27,11:40,0.177,0.157,0.254,0.240,0.238,0.139,0.084,west-northwest,13.4,No
2021/01/27,11:50,0.177,0.158,0.252,0.238,0.236,0.140,0.084,west-northwest,10.6,No
2021/01/27,12:00,0.176,0.158,0.253,0.239,0.239,0.140,0.084,west-northwest,7.4,No
2021/01/27,12:10,0.177,0.159,0.253,0.238,0.236,0.141,0.084,west-northwest,11.1,No
2021/01/27,12:20,0.176,0.159,0.254,0.240,0.237,0.140,0.084,west-northwest,11.1,No
2021/01/27,12:30,0.177,0.158,0.252,0.238,0.236,0.140,0.085,northwest,11.5,No
2021/01/27,12:40,0.177,0.160,0.253,0.240,0.238,0.140,0.084,northwest,8.8,No
2021/01/27,12:50,0.178,0.158,0.254,0.240,0.237,0.140,0.084,northwest,9.5,No
2021/01/27,13:00,0.177,0.159,0.253,0.241,0.237,0.141,0.085,northwest,9.0,No
2021/01/27,13:10,0.178,0.158,0.254,0.239,0.237,0.140,0.084,northwest,7.4,No
2021/01/27,13:20,0.177,0.159,0.253,0.241,0.239,0.140,0.084,northwest,7.0,No
2021/01/27,13:30,0.177,0.158,0.254,0.240,0.237,0.140,0.085,west-northwest,9.5,No
2021/01/27,13:40,0.177,0.158,0.254,0.239,0.239,0.141,0.085,northwest,7.5,No
2021/01/27,13:50,0.178,0.159,0.252,0.241,0.235,0.140,0.085,northwest,7.0,No
2021/01/27,14:00,0.177,0.158,0.254,0.239,0.238,0.140,0.084,north-northwest,7.9,No
2021/01/27,14:10,0.177,0.159,0.252,0.241,0.236,0.140,0.085,north-northwest,8.4,No
2021/01/27,14:20,0.177,0.159,0.253,0.240,0.239,0.140,0.085,north-northwest,10.1,No
2021/01/27,14:30,0.179,0.159,0.252,0.241,0.236,0.140,0.085,northwest,9.2,No
2021/01/27,14:40,0.178,0.160,0.254,0.240,0.238,0.141,0.086,northwest,9.2,No
2021/01/27,14:50,0.177,0.159,0.255,0.240,0.238,0.140,0.085,northwest,6.8,No
2021/01/27,15:00,0.178,0.159,0.254,0.241,0.238,0.140,0.085,north-northwest,5.4,No
2021/01/27,15:10,0.178,0.159,0.254,0.242,0.239,0.140,0.085,north-northwest,5.5,No
2021/01/27,15:20,0.177,0.159,0.255,0.242,0.238,0.140,0.085,north-northwest,6.2,No
2021/01/27,15:30,0.179,0.160,0.254,0.240,0.240,0.140,0.085,north-northwest,6.2,No
2021/01/27,15:40,0.178,0.159,0.254,0.240,0.238,0.141,0.084,northwest,6.5,No
2021/01/27,15:50,0.178,0.159,0.254,0.242,0.239,0.141,0.085,northwest,6.6,No
2021/01/27,16:00,0.178,0.160,0.254,0.240,0.239,0.140,0.084,north-northwest,7.1,No
2021/01/27,16:10,0.177,0.159,0.255,0.241,0.239,0.140,0.085,north-northwest,4.5,No
2021/01/27,16:20,0.178,0.159,0.254,0.242,0.239,0.141,0.085,north-northwest,4.1,No
2021/01/27,16:30,0.177,0.160,0.254,0.241,0.239,0.140,0.084,north-northwest,4.3,No
2021/01/27,16:40,0.178,0.159,0.255,0.241,0.239,0.141,0.085,north-northwest,4.6,No
2021/01/27,16:50,0.178,0.160,0.253,0.241,0.239,0.141,0.085,north,6.1,No
2021/01/27,17:00,0.177,0.160,0.253,0.241,0.237,0.140,0.085,north-northwest,4.8,No
2021/01/27,17:10,0.178,0.159,0.255,0.240,0.238,0.142,0.085,north-northwest,5.7,No
2021/01/27,17:20,0.178,0.159,0.255,0.241,0.237,0.141,0.085,north,6.1,No
2021/01/27,17:30,0.177,0.161,0.253,0.240,0.238,0.142,0.085,north,6.9,No
2021/01/27,17:40,0.178,0.159,0.254,0.241,0.240,0.141,0.085,north-northwest,7.4,No
2021/01/27,17:50,0.177,0.159,0.256,0.243,0.238,0.141,0.085,north-northwest,6.2,No
2021/01/27,18:00,0.178,0.160,0.255,0.240,0.237,0.141,0.084,north-northwest,5.4,No
2021/01/27,18:10,0.178,0.160,0.253,0.241,0.239,0.142,0.085,north-northwest,5.8,No
2021/01/27,18:20,0.178,0.159,0.255,0.243,0.237,0.141,0.085,north-northwest,5.7,No
2021/01/27,18:30,0.178,0.161,0.255,0.241,0.237,0.141,0.084,north-northwest,6.2,No
2021/01/27,18:40,0.177,0.160,0.254,0.240,0.238,0.142,0.085,north-northwest,7.6,No
2021/01/27,18:50,0.178,0.160,0.254,0.241,0.238,0.141,0.086,northwest,7.8,No
2021/01/27,19:00,0.177,0.160,0.255,0.242,0.238,0.140,0.086,northwest,7.5,No
2021/01/27,19:10,0.178,0.160,0.256,0.242,0.238,0.141,0.086,northwest,8.4,No
2021/01/27,19:20,0.179,0.159,0.253,0.241,0.239,0.141,0.085,northwest,8.1,No
2021/01/27,19:30,0.178,0.160,0.255,0.241,0.237,0.141,0.085,northwest,7.9,No
2021/01/27,19:40,0.179,0.160,0.255,0.241,0.238,0.141,0.085,northwest,8.1,No
2021/01/27,19:50,0.177,0.159,0.255,0.241,0.238,0.141,0.085,west-northwest,9.0,No
2021/01/27,20:00,0.178,0.159,0.255,0.240,0.239,0.140,0.085,west-northwest,7.8,No
2021/01/27,20:10,0.179,0.160,0.255,0.241,0.238,0.142,0.084,west-northwest,8.5,No
2021/01/27,20:20,0.177,0.160,0.256,0.242,0.239,0.140,0.085,west-northwest,9.2,No
2021/01/27,20:30,0.178,0.160,0.256,0.241,0.239,0.140,0.085,northwest,7.7,No
2021/01/27,20:40,0.179,0.159,0.256,0.241,0.239,0.142,0.085,west-northwest,6.1,No
2021/01/27,20:50,0.179,0.161,0.256,0.241,0.238,0.140,0.085,northwest,5.4,No
2021/01/27,21:00,0.178,0.160,0.255,0.242,0.239,0.141,0.085,northwest,4.6,No
2021/01/27,21:10,0.178,0.160,0.255,0.242,0.238,0.140,0.085,northwest,5.4,No
2021/01/27,21:20,0.178,0.159,0.256,0.242,0.239,0.141,0.086,northwest,4.6,No
2021/01/27,21:30,0.178,0.160,0.256,0.242,0.239,0.141,0.085,northwest,3.8,No
2021/01/27,21:40,0.177,0.160,0.255,0.241,0.238,0.140,0.085,northwest,3.9,No
2021/01/27,21:50,0.179,0.160,0.255,0.242,0.239,0.141,0.086,north-northwest,6.0,No
2021/01/27,22:00,0.178,0.158,0.255,0.241,0.239,0.140,0.086,northwest,7.1,No
2021/01/27,22:10,0.178,0.159,0.255,0.241,0.238,0.140,0.086,north-northwest,7.5,No
2021/01/27,22:20,0.178,0.159,0.254,0.242,0.238,0.140,0.085,north-northwest,6.2,No
2021/01/27,22:30,0.177,0.160,0.255,0.241,0.239,0.141,0.085,north-northwest,6.7,No
2021/01/27,22:40,0.178,0.160,0.254,0.242,0.239,0.140,0.085,north-northwest,6.5,No
2021/01/27,22:50,0.179,0.159,0.255,0.242,0.239,0.141,0.086,north-northwest,6.7,No
2021/01/27,23:00,0.179,0.159,0.256,0.241,0.239,0.141,0.086,north-northwest,6.4,No
2021/01/27,23:10,0.178,0.160,0.256,0.240,0.239,0.141,0.086,north-northwest,6.5,No
2021/01/27,23:20,0.179,0.161,0.255,0.241,0.238,0.141,0.085,north,6.3,No
2021/01/27,23:30,0.178,0.159,0.256,0.242,0.238,0.141,0.085,north-northwest,7.7,No
2021/01/27,23:40,0.177,0.160,0.256,0.242,0.238,0.142,0.085,north-northwest,7.3,No
2021/01/27,23:50,0.179,0.160,0.255,0.241,0.238,0.141,0.086,north-northwest,7.3,No
